Snowfall_Accumulation
0.1 0.0 0.0 0.0 0.0 0.0 0.0 0.0 0.0 0.0 0.0 0.0 0.0 0.0 0.0 0.0 0.0 0.0 0.0 0.0 0.0 0.0 0.0 0.0 0.0 0.0 0.0 0.0 0.0 0.1 0.1 0.0 0.1 1.3 0.7 0.0 0.0 0.0 0.0 0.0 0.0 0.0 0.0
0.4 0.0 0.0 0.0 0.0 0.0 0.0 0.0 0.0 0.0 0.0 0.0 0.0 0.0 0.0 0.0 0.0 0.0 0.0 0.0 0.0 0.0 0.0 0.0 0.0 0.0 0.0 0.5 0.0 0.2 0.1 1.1 0.9 0.5 0.0 0.0 0.0 0.0 0.0 0.0 0.0 0.0 0.0
1.0 0.7 0.0 0.0 0.0 0.0 0.0 0.0 0.0 0.0 0.0 0.0 0.0 0.0 0.0 0.0 0.0 0.0 0.0 0.0 0.0 0.0 0.0 0.0 0.0 0.0 0.0 0.4 0.2 0.1 0.6 0.1 0.1 0.3 0.0 0.0 0.0 0.0 0.0 0.0 0.0 0.0 0.0
2.0 1.3 0.0 0.4 0.1 0.0 0.0 0.0 0.0 0.0 0.0 0.0 0.0 0.0 0.0 0.0 0.0 0.0 0.0 0.0 0.0 0.0 0.0 0.0 0.4 1.0 0.0 0.5 0.6 0.3 0.1 0.1 0.1 0.1 0.0 1.1 0.2 0.1 0.2 0.1 0.0 0.0 0.0
3.8 2.8 1.8 1.0 0.5 0.2 0.0 0.0 0.0 0.0 0.0 0.0 0.0 0.0 0.0 0.0 0.0 0.0 0.0 0.1 0.4 0.0 1.0 1.1 1.0 0.6 0.1 0.1 0.3 0.4 0.4 0.4 1.3 3.4 2.3 1.4 1.4 0.0 0.0 0.0 0.0 0.0 0.1
6.6 5.8 3.3 1.9 1.4 0.5 0.1 0.0 0.0 0.0 0.0 0.0 0.0 0.0 0.0 0.0 0.0 0.1 0.3 0.5 0.5 0.6 2.5 1.3 1.5 0.9 0.2 0.1 0.0 0.1 0.2 1.4 3.8 4.8 4.8 0.9 0.0 0.0 0.0 0.1 1.2 1.4 1.8
11.1 7.8 6.0 4.4 2.8 1.9 0.6 0.4 0.2 0.0 0.1 0.1 0.0 0.0 0.0 0.0 0.0 0.1 0.5 4.1 3.9 2.9 1.9 1.5 0.6 0.3 0.2 0.0 0.0 0.0 0.3 0.3 0.4 1.1 1.0 0.5 0.4 0.0 2.0 2.8 1.6 3.2 2.3
12.1 11.6 8.5 8.9 5.4 3.8 3.1 2.0 0.7 0.6 0.5 0.3 0.2 1.5 2.2 0.0 0.0 0.2 0.6 1.2 1.5 0.4 0.1 0.1 0.1 0.1 0.0 0.2 0.3 1.7 0.4 0.2 0.0 0.0 0.0 0.1 0.6 0.2 0.5 1.3 2.8 1.8 0.3
10.6 12.3 12.3 11.9 12.3 9.3 5.9 6.4 4.1 2.0 3.6 1.9 3.1 2.7 2.0 1.1 0.1 0.1 0.1 0.4 0.7 0.1 0.0 0.0 0.1 0.1 0.1 0.1 1.4 1.9 0.5 0.0 0.0 0.0 0.2 0.0 0.0 0.0 0.0 2.1 2.9 4.1 2.5
11.0 12.3 12.8 13.3 17.9 17.9 11.6 10.9 9.3 5.6 3.2 2.3 6.1 0.9 0.4 0.6 0.0 0.2 0.3 0.9 1.9 0.7 0.3 0.1 0.0 0.1 0.1 0.4 0.3 1.0 1.8 0.2 1.5 0.6 0.0 0.0 0.0 0.0 0.0 0.2 5.2 14.3 6.7
11.4 10.5 12.2 14.3 15.8 18.6 19.4 14.9 16.5 8.8 3.7 2.4 2.1 0.7 0.8 0.8 0.2 0.2 0.2 0.5 1.4 2.0 1.4 0.5 0.1 0.1 0.6 0.1 0.1 0.1 0.4 0.2 0.2 0.1 0.0 0.0 0.0 0.0 0.1 0.4 2.0 10.4 16.5
9.6 12.2 12.0 12.1 12.3 12.8 16.0 16.1 14.3 18.0 15.4 10.0 8.6 2.4 0.6 0.3 0.2 0.1 0.3 0.2 0.1 1.8 1.7 0.3 0.4 0.7 0.1 0.2 0.2 0.4 0.4 0.3 0.4 0.8 1.1 0.6 0.3 0.3 0.2 0.2 0.3 1.9 3.8
6.6 9.4 10.8 11.0 11.3 11.2 11.6 14.6 15.7 15.1 17.6 18.1 15.1 13.5 6.5 1.4 0.4 0.3 0.3 0.3 0.4 0.7 0.6 1.0 0.6 0.2 0.4 0.2 0.2 0.3 0.4 0.5 1.5 3.5 2.5 1.4 1.8 1.3 2.4 4.3 5.7 6.1 7.2
6.3 7.1 8.4 10.6 11.3 10.9 10.5 10.6 12.5 15.0 18.3 18.9 18.3 18.3 15.3 10.6 4.8 1.4 1.3 2.0 1.4 1.0 1.1 1.1 1.0 0.3 0.1 0.1 0.0 0.0 0.2 0.6 3.4 6.4 5.5 3.8 4.4 5.7 6.6 7.6 12.6 10.6 12.4
5.0 5.8 6.8 8.1 10.5 10.6 11.4 15.2 17.6 17.4 19.4 25.5 25.7 22.4 22.0 20.6 15.4 6.9 5.8 3.9 3.3 3.2 2.7 2.1 0.8 1.0 0.7 0.3 0.3 0.2 0.2 0.8 3.7 3.7 5.3 5.4 5.0 8.2 8.9 10.4 14.9 14.0 14.9
4.4 6.0 7.3 8.1 9.0 8.9 9.0 8.5 6.1 8.8 9.7 10.7 12.0 15.9 17.7 12.2 8.9 7.2 5.4 4.0 2.2 1.3 3.6 2.4 1.5 1.1 1.2 1.2 1.5 1.9 2.1 2.7 4.8 7.4 8.3 8.6 11.1 12.9 15.4 16.6 16.2 16.6 16.2
5.0 6.3 4.7 5.7 7.1 7.6 8.4 8.6 10.0 6.6 4.5 5.3 7.5 8.9 10.0 11.4 10.2 9.1 9.3 8.1 5.5 3.9 11.2 10.0 8.1 6.5 4.5 4.2 4.0 5.2 5.8 5.2 8.1 11.9 12.7 12.7 14.7 17.2 18.2 17.8 15.3 14.7 13.2
3.4 3.4 3.6 3.7 4.0 4.9 6.1 7.3 8.1 8.8 8.6 7.4 6.4 7.7 8.2 10.1 12.8 13.3 12.7 10.0 11.2 10.3 15.2 19.3 14.0 12.3 10.6 10.1 10.3 12.3 13.6 13.0 11.9 12.0 13.8 16.8 19.3 23.5 22.1 19.2 14.7 13.8 12.6
2.5 3.2 2.6 2.6 3.1 3.2 3.9 5.6 6.5 7.8 9.1 8.9 5.9 5.2 7.0 8.6 8.0 10.2 10.7 18.2 22.3 24.7 22.9 23.8 22.0 21.1 22.5 17.9 14.5 16.3 18.1 21.3 23.1 25.0 21.9 23.4 22.4 26.5 22.0 13.6 12.1 8.7 11.7
4.0 3.7 3.8 4.2 4.7 4.4 4.4 4.0 4.8 5.2 7.3 8.5 9.3 12.9 11.0 9.7 13.8 16.6 17.1 20.1 22.1 25.3 25.0 25.4 24.1 22.9 24.2 25.9 20.9 24.2 25.5 25.3 26.9 24.0 26.5 26.1 24.0 23.3 22.1 16.9 14.6 16.3 13.7
4.1 4.2 3.7 4.4 4.7 4.4 4.6 4.8 4.7 4.5 6.1 7.7 8.8 10.1 10.8 16.1 18.0 16.2 17.6 20.5 22.0 25.4 26.7 25.6 25.8 24.3 22.3 25.5 26.6 28.2 30.9 30.5 28.4 27.6 25.8 23.6 20.9 21.5 13.0 13.5 14.5 13.4 14.4
3.9 3.5 3.7 4.4 4.5 3.9 4.4 4.7 5.0 5.0 6.1 6.9 6.1 6.8 5.4 8.0 9.9 12.4 13.9 15.4 16.8 19.6 20.2 23.7 26.6 25.0 26.2 33.4 41.5 40.9 31.3 32.6 31.2 30.5 24.8 19.2 16.7 15.3 15.4 16.4 14.6 15.0 14.8
3.3 3.3 3.2 3.6 3.6 3.9 4.4 3.9 5.4 5.9 6.6 6.1 5.8 7.1 7.6 8.6 8.9 10.6 12.6 12.7 13.9 16.2 15.7 18.9 21.8 26.2 24.1 29.2 35.3 47.7 51.7 41.6 35.6 29.5 30.1 24.8 20.0 19.3 19.1 20.4 16.3 16.4 14.0
3.0 3.5 3.3 3.0 3.4 3.8 4.4 5.0 5.4 6.1 6.3 6.4 6.6 7.4 8.9 9.9 10.7 11.4 11.6 12.5 13.7 14.9 14.8 17.7 20.9 26.4 28.3 32.0 35.6 38.6 45.1 42.2 33.9 31.4 30.3 32.0 25.8 19.5 17.3 16.8 15.8 14.6 11.2
3.3 2.8 2.7 3.0 3.3 4.6 5.0 4.5 4.2 4.7 5.9 6.4 7.2 7.0 6.9 7.4 8.6 9.3 10.2 12.6 14.3 14.6 14.6 16.8 19.5 23.3 27.7 33.2 37.0 38.0 37.7 31.6 32.6 30.3 25.9 23.3 24.7 18.6 18.8 18.8 16.9 16.2 13.8
3.4 3.0 3.5 3.9 4.2 4.0 5.3 5.4 4.9 4.5 5.7 6.0 6.9 6.9 7.0 7.3 8.1 8.4 9.2 10.6 13.0 12.7 11.8 13.8 14.9 19.2 24.1 30.5 33.0 29.2 26.2 25.6 25.3 19.2 23.3 25.0 23.8 20.1 16.8 16.8 14.1 15.5 13.8